[[{"header":{"parameterUnit":"m.s-1","parameterCategory":1,"la1":30.2991,"la2":30.254,"lo1":-89.0895,"lo2":-89.0444,"dy":0.0017,"dx":0.0017,"nx":28,"ny":28,"refTime":"2024-05-06T21:00:00:Z","depth":0,"parameterNumber":2,"parameterNumberName":"U-component_of_WINDS"},"data":[0,0,0,0,0,0,0,0,0,0,0,0,0,0,0,0,0,0,0,0,0,0,0,0,0,0,0,0,0,0,0,0,0,0,0,0,0,0,0,0,0,0,0,0,0,0,0,0,0,0,0,0,0,0,0,0,0,0,-1.8776,-1.8775,0,-1.8732,-1.8731,-1.8731,-1.8646,-1.8645,-1.8643,-1.8642,-1.8598,-1.8598,-1.8598,0,0,0,0,0,0,0,0,0,0,0,0,0,-1.8789,-1.8789,-1.8776,-1.8775,-1.8775,-1.8732,-1.8731,-1.8731,-1.8647,-1.8645,-1.8643,-1.8641,-1.8597,-1.8598,-1.8598,0,0,0,0,0,0,0,0,0,0,0,0,0,-1.8768,-1.8789,-1.8776,-1.8727,-1.8723,-1.8732,-1.8731,-1.8731,-1.8647,-1.8645,-1.8642,-1.864,-1.8597,-1.8598,-1.8598,-1.8651,0,0,-1.86,-1.86,0,0,0,0,0,0,0,0,-1.8769,-1.8767,-1.8735,-1.8731,-1.8726,-1.8692,-1.872,-1.8704,-1.8648,-1.8676,-1.8642,-1.8639,-1.8631,-1.8629,-1.8626,-1.8649,-1.8647,-1.86,-1.86,-1.8601,-1.8601,0,0,0,0,0,0,0,-1.8771,-1.8769,-1.8758,-1.8735,-1.8729,-1.8709,-1.8703,-1.8716,-1.8668,-1.8673,-1.8667,-1.8663,-1.8628,-1.8626,-1.8624,-1.8647,-1.86,-1.8601,-1.8601,-1.8601,-1.8714,-1.8716,0,0,0,0,0,0,-1.8779,-1.8771,-1.876,-1.8757,-1.8742,-1.871,-1.8704,-1.8705,-1.8668,-1.8659,-1.8665,-1.8659,-1.8626,-1.8624,-1.8622,-1.8684,-1.8601,-1.8601,-1.8601,-1.8711,-1.8714,-1.8717,0,0,0,0,0,0,-1.8779,-1.8779,-1.8761,-1.8762,-1.8758,-1.8713,-1.8715,-1.8706,-1.8703,-1.8661,-1.8652,-1.8671,-1.8624,-1.8622,-1.8645,-1.8681,-1.8601,-1.8602,-1.8708,-1.8712,-1.8716,-1.8806,0,0,0,0,0,0,-1.878,-1.8779,-1.8798,-1.8763,-1.8759,-1.8785,-1.8717,-1.8707,-1.8704,-1.8696,-1.8665,-1.8657,-1.8622,-1.8645,-1.8646,-1.868,-1.8602,-1.8705,-1.871,-1.8715,-1.8799,-1.8812,-1.8823,0,0,0,0,0,-1.8781,-1.8825,-1.88,-1.8799,-1.8781,-1.8787,-1.8784,-1.8742,-1.8707,-1.8727,-1.87,-1.8658,-1.8677,-1.8648,-1.8648,-1.8683,-1.8702,-1.8708,-1.8714,-1.8794,-1.881,-1.8823,0,0,0,0,0,0,-1.8866,-1.882,-1.8791,-1.8825,-1.8811,-1.8773,-1.8795,-1.876,-1.8755,-1.8747,-1.8695,-1.8689,-1.872,-1.8704,-1.8673,-1.8734,-1.8683,-1.8689,-1.8744,-1.8758,-1.877,-1.8774,-1.8603,0,0,0,0,0,-1.8888,-1.8896,-1.8855,-1.889,-1.8884,-1.8841,-1.8842,-1.8811,-1.8794,-1.8787,-1.8762,-1.8748,-1.875,-1.8753,-1.8753,-1.8796,-1.8789,-1.8821,-1.8833,-1.8843,-1.8849,-1.8873,-1.8887,-1.8737,-1.8737,-1.8737,0,0,-1.8935,-1.8911,-1.8919,-1.8906,-1.8891,-1.8901,-1.8837,-1.8849,-1.8857,-1.8789,-1.881,-1.8792,-1.8772,-1.8807,-1.8821,-1.8794,-1.8889,-1.885,-1.8859,-1.886,-1.8881,-1.8895,-1.8908,-1.8741,-1.874,-1.874,0,0,-1.9026,-1.9008,-1.9035,-1.9022,-1.9,-1.8972,-1.8979,-1.8947,-1.8932,-1.8952,-1.8903,-1.8911,-1.8916,-1.8905,-1.89,-1.8989,-1.8951,-1.899,-1.9053,-1.9077,-1.9089,-1.9099,-1.9133,-1.9145,-1.8996,-1.8997,-1.8997,0,-1.9087,-1.91,-1.9054,-1.9071,-1.9067,-1.9007,-1.9035,-1.9024,-1.9004,-1.9003,-1.8974,-1.898,-1.8963,-1.8995,-1.9017,-1.9014,-1.9022,-1.8994,-1.9091,-1.9101,-1.9109,-1.9141,-1.9154,-1.9002,-1.9001,-1.9001,-1.9,0,-1.9177,-1.9187,-1.9212,-1.9195,-1.9194,-1.9216,-1.9174,-1.9179,-1.9149,-1.9124,-1.9147,-1.9124,-1.9119,-1.9124,-1.9094,-1.9153,-1.9137,-1.91,-1.9048,-1.913,-1.9158,-1.917,-1.9009,-1.9007,-1.9006,-1.9004,0,0,-1.932,-1.9278,-1.9288,-1.928,-1.9253,-1.926,-1.928,-1.9275,-1.9282,-1.927,-1.9287,-1.9294,-1.926,-1.9254,-1.9222,-1.9243,-1.9318,-1.9204,-1.9202,-1.9227,-1.9384,-1.9413,-1.9427,-1.9292,-1.9294,-1.9296,-1.9386,0,-1.9406,-1.9438,-1.9398,-1.9439,-1.9449,-1.9392,-1.941,-1.9396,-1.9374,-1.938,-1.9355,-1.9361,-1.9315,-1.9312,-1.933,-1.9305,-1.9349,-1.9298,-1.9309,-1.931,-1.9317,-1.9442,-1.9472,-1.9558,-1.9396,-1.9398,-1.94,0,-1.951,-1.9505,-1.9547,-1.9519,-1.9522,-1.9538,-1.9532,-1.9538,-1.9521,-1.9504,-1.9499,-1.9461,-1.948,-1.943,-1.9456,-1.9423,-1.9425,-1.9414,-1.9416,-1.9416,-1.9361,-1.9447,-1.9584,-1.9598,-1.9417,-1.9415,-1.9414,0,-1.9613,-1.9616,-1.9642,-1.9637,-1.9604,-1.9617,-1.9605,-1.9585,-1.9586,-1.958,-1.9581,-1.9578,-1.9576,-1.9575,-1.9539,-1.9505,-1.9571,-1.9516,-1.9558,-1.956,-1.9576,-1.9575,-1.9717,-1.9575,-1.9575,-1.9575,-1.9574,0,-1.9714,-1.9743,-1.9688,-1.9704,-1.9735,-1.9689,-1.9721,-1.9703,-1.9686,-1.9699,-1.965,-1.9663,-1.9612,-1.9621,-1.9592,-1.962,-1.9619,-1.9607,-1.9599,-1.9612,-1.9614,-1.9614,-1.9607,-1.9578,-1.9577,-1.9577,-1.9576,0,-1.9834,-1.9798,-1.9823,-1.979,-1.9783,-1.9808,-1.978,-1.9794,-1.9769,-1.9786,-1.9787,-1.9748,-1.9756,-1.9719,-1.9719,-1.97,-1.9743,-1.9724,-1.9749,-1.9743,-1.9788,-1.9785,-1.9935,-1.9953,-1.9799,-1.9801,-1.9802,0,-1.9902,-1.9923,-1.9892,-1.9897,-1.9887,-1.9895,-1.9896,-1.9852,-1.9855,-1.9838,-1.9855,-1.9858,-1.9859,-1.9873,-1.9845,-1.9846,-1.9828,-1.988,-1.9828,-1.9841,-1.9831,-1.9831,-1.9834,-1.9892,-1.9894,-1.9895,-1.9897,0,-2.0027,-2.0008,-2.001,-2.0008,-2.001,-2.0005,-1.9997,-2.0004,-1.9956,-1.9962,-1.9969,-1.997,-1.9971,-1.9975,-1.997,-1.9958,-1.9921,-1.9913,-1.9924,-1.9938,-1.9952,-1.9947,-1.978,-1.991,-1.9909,-1.9908,-1.9907,-1.9907,-2.0124,-2.014,-2.0122,-2.0127,-2.0117,-2.0111,-2.0124,-2.0101,-2.0105,-2.0103,-2.0076,-2.0089,-2.0073,-2.0063,-2.0054,-2.0064,-2.0039,-2.0054,-2.0057,-2.0062,-2.0071,-1.9949,-2.0063,-2.0062,-2.0062,-2.0062,-2.0061,0,-2.0248,-2.0233,-2.0238,-2.0229,-2.0234,-2.0197,-2.0187,-2.0194,-2.0205,-2.0194,-2.0195,-2.0204,-2.0209,-2.0182,-2.0183,-2.0196,-2.0179,-2.0198,-2.0198,-2.0196,-2.0092,-2.0084,-2.0212,-2.0212,-2.0212,-2.0212,-2.0212,-2.0212,-2.0313,-2.034,-2.032,-2.0342,-2.0327,-2.0339,-2.0337,-2.0332,-2.0322,-2.0335,-2.0338,-2.032,-2.0303,-2.0303,-2.0306,-2.0298,-2.0302,-2.0327,-2.0314,-2.0217,-2.0203,-2.0189,-2.0181,-2.0328,-2.0328,-2.0417,-2.0418,-2.0418]},{"header":{"parameterUnit":"m.s-1","parameterCategory":1,"la1":30.2991,"la2":30.254,"lo1":-89.0895,"lo2":-89.0444,"dy":0.0017,"dx":0.0017,"nx":28,"ny":28,"refTime":"2024-05-06T21:00:00:Z","depth":0,"parameterNumber":3,"parameterNumberName":"V-component_of_WINDS"},"data":[0,0,0,0,0,0,0,0,0,0,0,0,0,0,0,0,0,0,0,0,0,0,0,0,0,0,0,0,0,0,0,0,0,0,0,0,0,0,0,0,0,0,0,0,0,0,0,0,0,0,0,0,0,0,0,0,0,0,2.9561,2.9562,0,2.9645,2.9646,2.9647,2.9684,2.9684,2.9684,2.9684,2.9766,2.9768,2.977,0,0,0,0,0,0,0,0,0,0,0,0,0,2.9434,2.9436,2.9561,2.9562,2.9563,2.9644,2.9646,2.9647,2.9684,2.9684,2.9684,2.9684,2.9765,2.9768,2.9771,0,0,0,0,0,0,0,0,0,0,0,0,0,2.95,2.9437,2.9561,2.9592,2.9596,2.9644,2.9646,2.9647,2.9684,2.9684,2.9684,2.9684,2.9764,2.9768,2.9771,2.9794,0,0,2.9781,2.9783,0,0,0,0,0,0,0,0,2.9496,2.9505,2.9587,2.959,2.9594,2.9654,2.9631,2.9696,2.9684,2.9651,2.9684,2.9684,2.9729,2.9735,2.9751,2.9798,2.9801,2.9782,2.9784,2.9785,2.9786,0,0,0,0,0,0,0,2.9492,2.9501,2.9594,2.9588,2.9592,2.9601,2.9611,2.9643,2.9689,2.9654,2.9657,2.9666,2.9731,2.9747,2.9753,2.9802,2.9781,2.9784,2.9787,2.9788,2.9876,2.9876,0,0,0,0,0,0,2.9482,2.9497,2.9592,2.9597,2.9544,2.9604,2.9614,2.9635,2.9689,2.9697,2.9666,2.9668,2.9742,2.9749,2.9756,2.9789,2.9785,2.9788,2.979,2.9875,2.9876,2.9876,0,0,0,0,0,0,2.9479,2.949,2.9588,2.9548,2.9561,2.9606,2.9629,2.9637,2.9653,2.9698,2.9706,2.9675,2.9742,2.9751,2.9785,2.9792,2.979,2.9793,2.9875,2.9876,2.9876,2.9853,0,0,0,0,0,0,2.9476,2.9489,2.9498,2.9548,2.9563,2.9616,2.9629,2.9638,2.9659,2.9662,2.9709,2.9716,2.9742,2.978,2.9788,2.9796,2.9795,2.9875,2.9875,2.9876,2.9853,2.9852,2.9852,0,0,0,0,0,2.9471,2.9487,2.9499,2.951,2.9576,2.9617,2.9625,2.9656,2.966,2.967,2.9699,2.9715,2.979,2.9783,2.9793,2.9802,2.9874,2.9875,2.9876,2.9853,2.9852,2.9852,0,0,0,0,0,0,2.9435,2.9494,2.9507,2.954,2.9574,2.9623,2.9636,2.9654,2.9685,2.9686,2.9722,2.9732,2.9764,2.9786,2.9778,2.9829,2.9834,2.9836,2.9813,2.9812,2.9812,2.9806,2.9798,0,0,0,0,0,2.9431,2.946,2.951,2.9534,2.955,2.959,2.9609,2.963,2.9666,2.9679,2.9711,2.9744,2.9776,2.9795,2.9826,2.9856,2.9868,2.9868,2.9867,2.9866,2.9868,2.9889,2.989,2.9879,2.9879,2.9879,0,0,2.9423,2.9459,2.9475,2.9528,2.9556,2.9585,2.9602,2.9631,2.9653,2.9683,2.9719,2.9743,2.9782,2.9815,2.9831,2.9835,2.9874,2.9867,2.9866,2.9869,2.9889,2.989,2.9891,2.9879,2.9879,2.9879,0,0,2.9424,2.9453,2.9478,2.9507,2.955,2.9577,2.9583,2.9631,2.9649,2.9685,2.9709,2.9736,2.9788,2.9816,2.9837,2.9851,2.9868,2.986,2.9857,2.9876,2.9877,2.9878,2.9885,2.9887,2.9862,2.9862,2.9862,0,2.9408,2.9454,2.9488,2.9518,2.9541,2.9572,2.9597,2.9623,2.9673,2.9689,2.9692,2.9761,2.9789,2.9831,2.9835,2.985,2.9859,2.9855,2.9874,2.9875,2.9877,2.9884,2.9886,2.9861,2.9861,2.9861,2.9861,0,2.9433,2.9465,2.9479,2.953,2.9555,2.9582,2.962,2.9641,2.9661,2.9688,2.9725,2.9761,2.9801,2.9812,2.983,2.9857,2.9858,2.9867,2.9873,2.9876,2.9884,2.9886,2.9859,2.986,2.986,2.986,0,0,2.9412,2.9484,2.9488,2.9513,2.9564,2.9589,2.9618,2.966,2.9678,2.9712,2.9738,2.9783,2.9793,2.9817,2.9839,2.9856,2.9868,2.9864,2.9865,2.9865,2.9902,2.9895,2.9898,2.9879,2.988,2.988,2.9899,0,2.9421,2.9476,2.9509,2.955,2.9581,2.9612,2.9638,2.9672,2.9698,2.9728,2.9756,2.9789,2.9799,2.9814,2.9832,2.9862,2.9876,2.9861,2.9904,2.9905,2.9894,2.9901,2.9894,2.991,2.9902,2.9902,2.9903,0,2.9438,2.9474,2.9519,2.957,2.9584,2.9607,2.9649,2.9676,2.9717,2.9735,2.9763,2.9786,2.9818,2.9822,2.9868,2.9857,2.9877,2.9895,2.9896,2.9902,2.9904,2.9908,2.9915,2.9918,2.9907,2.9907,2.9906,0,2.942,2.948,2.9516,2.9536,2.9595,2.9611,2.9636,2.9676,2.97,2.9736,2.9752,2.979,2.9812,2.9842,2.9875,2.9873,2.9918,2.9923,2.9935,2.9934,2.9943,2.9942,2.9954,2.9954,2.9954,2.9954,2.9953,0,2.9427,2.9454,2.9509,2.9531,2.9563,2.96,2.963,2.9658,2.9694,2.9722,2.9751,2.9776,2.9818,2.9849,2.9875,2.9911,2.9919,2.9935,2.9942,2.9934,2.9932,2.9947,2.9947,2.9954,2.9954,2.9954,2.9954,0,2.9412,2.945,2.9492,2.9546,2.956,2.9581,2.9628,2.965,2.9679,2.9714,2.9725,2.977,2.9808,2.9844,2.9894,2.9912,2.9948,2.9956,2.9935,2.9939,2.9949,2.9948,2.9973,2.9979,2.9972,2.9972,2.9972,0,2.9414,2.9436,2.9494,2.9516,2.9541,2.9575,2.9601,2.9639,2.9664,2.9713,2.973,2.9771,2.9806,2.9866,2.9902,2.9942,2.9952,2.9958,2.9958,2.9949,2.9954,2.9953,2.9956,2.9957,2.9957,2.9957,2.9957,0,2.9415,2.9434,2.9469,2.9512,2.9542,2.9577,2.9613,2.9629,2.9675,2.9701,2.9742,2.9769,2.9822,2.9863,2.9907,2.9933,2.9953,2.9957,2.9962,2.9953,2.9941,2.995,2.9935,2.9956,2.9956,2.9956,2.9956,2.9956,2.941,2.9432,2.9477,2.9517,2.9548,2.9582,2.9607,2.9641,2.9675,2.9723,2.9743,2.9785,2.9827,2.9889,2.9915,2.9948,2.9952,2.9959,2.9961,2.9962,2.9961,2.9935,2.9956,2.9956,2.9956,2.9956,2.9956,0,2.9414,2.9445,2.9481,2.9532,2.9564,2.9581,2.9623,2.9648,2.9684,2.9722,2.9757,2.9805,2.9845,2.9886,2.9929,2.9948,2.9958,2.9958,2.9957,2.9963,2.9954,2.9946,2.9949,2.9949,2.9949,2.9949,2.9949,2.9949,2.9419,2.9458,2.9483,2.9538,2.9569,2.9612,2.9634,2.9666,2.9697,2.975,2.9784,2.9811,2.9851,2.9898,2.9936,2.9947,2.9962,2.9959,2.9973,2.9963,2.9964,2.9964,2.9957,2.9962,2.9962,2.998,2.998,2.998]}]]